Date String (YYYY-MM-DD hh:mm:ss) UTC,Instrument flags,absolute air pressure of the measurement (hPa),sample flow rate (lpm),inlet stack bypass flow (lpm),air temperature of the measurement (°C),ambient temperature measured by the external sensor (°C),aerosol sample conditioner tube jacket temperature (°C),OPC LED temperature (°C),internal box temperature (°C),relative humidity of the measurement (%),span deviation,mass concentration of particles derived from Lorenz-Mie calculation of OPC scattering (μg/m³),mass concentration of particles derived from Lorenz-Mie calculation of OPC scattering (μg/m³),mass concentration of particles derived from Lorenz-Mie calculation of OPC scattering (μg/m³)
DateTimeUTC,F1_M11,P_M11,Q1_M11,Q2_M11,T1_M11,T2_M11,T3_M11,T4_M11,T5_M11,U1_M11,ZSPAN_M11,X0_M11,X2_M11,X1_M11
2024-06-12 15:00:00,SystemResetWarning,0830.6,5.00,000.00,029.6,028.6,000.0,037.9,031.3,027.7,0000.0,0020.01,0005.19,0004.17
2024-06-12 15:01:00,SystemResetWarning,0830.6,5.00,000.00,029.6,028.8,000.0,037.9,031.4,028.5,0000.0,0020.18,0005.26,0004.18
2024-06-12 15:02:00,SystemResetWarning,0830.6,5.00,000.00,029.7,029.0,000.0,037.9,031.4,028.2,0000.0,0019.60,0005.29,0004.20
2024-06-12 15:03:00,SystemResetWarning,0830.6,4.99,000.00,029.7,029.1,000.0,037.9,031.5,030.0,0000.0,0018.86,0005.29,0004.22
2024-06-12 15:04:00,SystemResetWarning,0830.7,4.99,000.00,029.8,029.2,000.0,038.0,031.6,029.5,0000.0,0017.80,0005.30,0004.24
2024-06-12 15:05:00,SystemResetWarning,0830.6,5.00,000.00,029.9,029.4,000.0,038.0,031.7,028.9,0000.0,0019.10,0005.33,0004.26
2024-06-12 15:06:00,SystemResetWarning,0830.7,5.00,000.00,029.9,029.4,000.0,038.0,031.7,027.0,0000.0,0019.58,0005.32,0004.25
2024-06-12 15:07:00,SystemResetWarning,0830.6,4.99,000.00,029.8,028.1,000.0,038.1,031.0,027.1,0000.0,0019.82,0005.37,0004.27
2024-06-12 15:08:00,SystemResetWarning,0830.7,5.01,000.00,029.5,026.4,000.0,038.1,030.2,024.6,0000.0,0019.28,0005.37,0004.29
2024-06-12 15:09:00,SystemResetWarning,0830.6,5.02,000.00,029.3,026.5,000.0,038.1,030.2,025.2,0000.0,0019.17,0005.34,0004.29
2024-06-12 15:10:00,SystemResetWarning,0830.6,4.99,000.00,029.2,027.0,000.0,038.0,030.4,022.1,0000.0,0018.35,0005.34,0004.28
2024-06-12 15:11:00,SystemResetWarning,0830.6,4.99,000.00,029.3,027.4,000.0,037.9,030.7,025.9,0000.0,0018.14,0005.32,0004.27
2024-06-12 15:12:00,SystemResetWarning,0830.6,5.01,000.00,029.3,027.7,000.0,037.8,030.9,019.3,0000.0,0017.78,0005.27,0004.25
2024-06-12 15:13:00,SystemResetWarning,0830.6,5.01,000.00,029.4,028.1,000.0,037.8,031.0,020.7,0000.0,0017.44,0005.20,0004.24
2024-06-12 15:14:00,SystemResetWarning,0830.7,4.99,000.00,029.4,028.3,000.0,037.8,031.1,020.4,0000.0,0016.63,0005.14,0004.22
2024-06-12 15:15:00,SystemResetWarning,0830.7,4.99,000.00,029.5,028.6,000.0,037.8,031.2,019.2,0000.0,0017.04,0005.12,0004.18
2024-06-12 15:16:00,SystemResetWarning,0830.7,4.99,000.00,029.6,028.8,000.0,037.8,031.3,020.5,0000.0,0016.07,0005.04,0004.16
2024-06-12 15:17:00,SystemResetWarning,0830.7,5.01,000.00,029.6,028.9,000.0,037.8,031.4,022.2,0000.0,0015.69,0004.96,0004.14
2024-06-12 15:18:00,SystemResetWarning,0830.7,5.00,000.00,029.7,029.1,000.0,037.8,031.5,020.3,0000.0,0015.02,0004.92,0004.12
2024-06-12 15:19:00,SystemResetWarning,0830.7,5.01,000.00,029.8,029.2,000.0,037.9,031.5,020.1,0000.0,0014.68,0004.94,0004.10
2024-06-12 15:20:00,SystemResetWarning,0830.7,5.00,000.00,029.8,029.3,000.0,037.9,031.6,021.3,0000.0,0014.59,0004.93,0004.09
2024-06-12 15:21:00,SystemResetWarning,0830.7,4.99,000.00,029.8,028.8,000.0,038.0,031.3,021.7,0000.0,0014.67,0004.95,0004.09
2024-06-12 15:22:00,SystemResetWarning,0830.5,5.00,000.00,029.5,026.9,000.0,038.0,030.4,020.3,0000.0,0014.68,0004.99,0004.09
2024-06-12 15:23:00,SystemResetWarning,0830.5,5.01,000.00,029.2,026.4,000.0,038.0,030.0,020.1,0000.0,0014.86,0004.98,0004.09
2024-06-12 15:24:00,SystemResetWarning,0830.6,4.99,000.00,029.2,026.8,000.0,037.9,030.3,018.7,0000.0,0014.42,0005.02,0004.08
2024-06-12 15:25:00,SystemResetWarning,0830.7,5.00,000.00,029.2,027.2,000.0,037.8,030.5,019.7,0000.0,0014.45,0005.05,0004.08
2024-06-12 15:26:00,SystemResetWarning,0830.6,5.01,000.00,029.2,027.6,000.0,037.8,030.7,019.5,0000.0,0013.80,0005.07,0004.09
2024-06-12 15:27:00,SystemResetWarning,0830.6,5.00,000.00,029.3,027.9,000.0,037.7,030.9,020.3,0000.0,0014.30,0005.13,0004.11
2024-06-12 15:28:00,SystemResetWarning,0830.5,5.00,000.00,029.3,028.2,000.0,037.7,031.0,019.4,0000.0,0013.92,0005.19,0004.12
2024-06-12 15:29:00,SystemResetWarning,0830.5,5.00,000.00,029.4,028.5,000.0,037.7,031.1,021.2,0000.0,0013.31,0005.21,0004.14
2024-06-12 15:30:00,SystemResetWarning,0830.6,5.00,000.00,029.5,028.7,000.0,037.7,031.2,020.3,0000.0,0014.27,0005.20,0004.15
2024-06-12 15:31:00,SystemResetWarning,0830.6,5.00,000.00,029.5,028.8,000.0,037.7,031.3,019.8,0000.0,0014.62,0005.22,0004.16
2024-06-12 15:32:00,SystemResetWarning,0830.5,5.01,000.00,029.6,029.0,000.0,037.8,031.4,019.7,0000.0,0014.85,0005.21,0004.17
2024-06-12 15:33:00,SystemResetWarning,0830.5,5.00,000.00,029.7,029.1,000.0,037.8,031.5,019.1,0000.0,0015.60,0005.17,0004.19
2024-06-12 15:34:00,SystemResetWarning,0830.5,4.99,000.00,029.7,029.2,000.0,037.8,031.6,019.2,0000.0,0015.72,0005.15,0004.21
2024-06-12 15:35:00,SystemResetWarning,0830.6,4.99,000.00,029.8,029.2,000.0,037.9,031.5,019.7,0000.0,0015.44,0005.15,0004.21
2024-06-12 15:36:00,SystemResetWarning,0830.6,5.00,000.00,029.6,027.5,000.0,038.0,030.7,020.6,0000.0,0014.61,0005.14,0004.23
2024-06-12 15:37:00,SystemResetWarning,0830.7,5.02,000.00,029.3,026.1,000.0,038.0,030.0,020.1,0000.0,0014.43,0005.15,0004.26
2024-06-12 15:38:00,SystemResetWarning,0830.5,5.00,000.00,029.1,026.6,000.0,037.9,030.2,017.7,0000.0,0013.96,0005.14,0004.26
2024-06-12 15:39:00,SystemResetWarning,0830.5,4.99,000.00,029.1,027.0,000.0,037.8,030.4,019.9,0000.0,0013.22,0005.09,0004.25
2024-06-12 15:40:00,SystemResetWarning,0830.5,5.00,000.00,029.2,027.4,000.0,037.7,030.6,017.2,0000.0,0013.20,0005.05,0004.24
2024-06-12 15:41:00,SystemResetWarning,0830.5,5.01,000.00,029.2,027.8,000.0,037.7,030.8,017.1,0000.0,0012.35,0005.00,0004.23
2024-06-12 15:42:00,SystemResetWarning,0830.6,5.01,000.00,029.3,028.1,000.0,037.7,030.9,018.7,0000.0,0011.75,0004.96,0004.23
2024-06-12 15:43:00,SystemResetWarning,0830.8,4.99,000.00,029.3,028.3,000.0,037.7,031.1,017.9,0000.0,0011.88,0004.94,0004.23
2024-06-12 15:44:00,SystemResetWarning,0830.7,5.00,000.00,029.4,028.6,000.0,037.7,031.2,018.2,0000.0,0011.68,0004.95,0004.24
2024-06-12 15:45:00,SystemResetWarning,0830.6,5.00,000.00,029.5,028.7,000.0,037.7,031.3,018.9,0000.0,0010.96,0004.97,0004.24
2024-06-12 15:46:00,SystemResetWarning,0830.5,5.00,000.00,029.6,028.9,000.0,037.7,031.3,016.4,0000.0,0010.98,0005.00,0004.25
2024-06-12 15:47:00,SystemResetWarning,0830.5,5.00,000.00,029.6,029.1,000.0,037.7,031.4,016.1,0000.0,0011.12,0005.00,0004.24
2024-06-12 15:48:00,SystemResetWarning,0830.4,5.00,000.00,029.7,029.2,000.0,037.8,031.5,017.3,0000.0,0011.34,0004.94,0004.20
2024-06-12 15:49:00,SystemResetWarning,0830.5,5.00,000.00,029.8,029.0,000.0,037.8,031.4,017.1,0000.0,0011.96,0004.93,0004.20
2024-06-12 15:50:00,SystemResetWarning,0830.5,4.98,000.00,029.5,027.2,000.0,037.9,030.5,016.4,0000.0,0012.72,0004.93,0004.20
2024-06-12 15:51:00,SystemResetWarning,0830.5,5.02,000.00,029.2,026.1,000.0,037.9,029.9,016.8,0000.0,0012.87,0004.93,0004.21
2024-06-12 15:52:00,SystemResetWarning,0830.4,5.01,000.00,029.1,026.7,000.0,037.9,030.1,017.9,0000.0,0013.91,0004.97,0004.23
2024-06-12 15:53:00,SystemResetWarning,0830.4,4.99,000.00,029.1,027.1,000.0,037.7,030.4,018.5,0000.0,0014.43,0005.05,0004.24
2024-06-12 15:54:00,SystemResetWarning,0830.7,5.00,000.00,029.1,027.5,000.0,037.7,030.6,018.6,0000.0,0015.14,0005.06,0004.24
2024-06-12 15:55:00,SystemResetWarning,0830.5,5.00,000.00,029.2,027.8,000.0,037.6,030.8,019.6,0000.0,0014.96,0005.10,0004.24
2024-06-12 15:56:00,SystemResetWarning,0830.7,5.01,000.00,029.2,028.1,000.0,037.6,030.9,019.1,0000.0,0015.79,0005.09,0004.24
2024-06-12 15:57:00,SystemResetWarning,0830.4,5.00,000.00,029.3,028.4,000.0,037.6,031.0,019.6,0000.0,0015.92,0005.07,0004.24
2024-06-12 15:58:00,SystemResetWarning,0830.7,4.99,000.00,029.4,028.6,000.0,037.6,031.1,018.3,0000.0,0016.74,0005.09,0004.25
2024-06-12 15:59:00,SystemResetWarning,0830.6,5.00,000.00,029.5,028.8,000.0,037.6,031.2,019.0,0000.0,0016.93,0005.13,0004.28
